Temperature
7 7 7 8 8 9 8 8 9 9 10 10 9 10 10 11 10 10 11 12 13 14 14 14 14 14 14 14 15 15 15 14 14 14 14 14 13 13 13 13 13 13 13 12
6 7 7 8 8 9 8 8 8 9 10 10 9 9 10 9 10 11 11 12 13 13 14 14 14 14 14 14 14 14 14 14 14 14 14 14 13 13 13 13 13 12 12 12
6 7 8 8 8 8 8 8 8 8 9 9 9 9 9 9 10 11 11 12 13 13 13 14 14 14 14 14 14 14 14 14 14 14 13 13 13 13 12 12 12 12 12 12
6 7 7 7 7 8 8 8 9 9 8 8 9 8 9 9 9 9 10 11 12 13 13 14 14 14 14 14 14 14 14 14 13 13 13 13 13 13 13 12 12 12 12 11
6 6 7 7 7 8 8 8 8 8 8 7 8 8 8 8 9 9 9 10 12 13 13 13 14 14 14 14 14 13 13 13 13 13 13 13 12 12 12 12 12 12 11 11
6 6 7 7 8 8 8 8 7 7 7 7 7 7 8 7 9 9 9 10 11 12 12 13 13 13 13 13 13 13 13 13 12 12 12 12 12 12 12 12 11 11 11 11
5 6 6 7 7 7 7 7 7 7 7 7 7 7 8 8 8 9 9 10 10 11 12 12 12 12 12 12 12 12 12 12 12 12 12 11 11 11 11 11 11 11 11 11
5 5 6 6 7 6 7 7 7 7 7 6 6 7 7 8 8 9 9 9 10 10 11 11 12 12 12 12 12 12 12 12 12 11 11 11 11 11 11 10 10 10 10 10
4 5 6 6 7 7 6 6 7 6 6 6 6 6 7 8 7 7 7 8 8 9 10 11 11 11 11 11 12 12 11 11 11 11 11 11 10 10 10 10 10 10 10 10
4 4 5 6 7 7 7 6 6 6 6 7 7 6 7 8 7 6 6 6 7 8 9 10 10 10 11 11 11 11 11 11 11 11 10 10 10 10 10 10 9 9 9 9
4 4 4 5 6 6 6 6 6 5 6 6 7 7 7 7 6 6 5 6 7 7 8 9 9 9 10 10 10 10 10 10 10 10 10 10 9 9 9 9 9 9 9 9
3 3 3 4 5 5 6 5 5 6 5 5 5 6 7 5 5 5 5 6 6 7 7 8 8 8 9 9 9 10 9 9 9 9 9 9 9 9 9 9 9 9 8 8
3 3 3 4 4 4 4 4 5 5 4 4 5 6 5 4 4 5 5 5 5 6 6 7 7 7 8 8 8 9 9 9 9 8 8 8 8 8 8 8 8 8 8 8
3 2 3 3 4 3 3 4 4 4 4 4 4 5 5 4 4 4 4 4 5 5 5 6 6 6 7 7 7 8 8 8 8 8 8 8 8 8 8 8 8 7 7 7
2 2 2 3 3 3 3 3 4 4 4 4 4 5 5 4 4 3 4 4 4 4 5 5 5 6 6 6 7 7 7 7 7 7 7 7 7 7 7 7 7 7 6 6
1 1 1 2 3 3 3 3 3 4 4 4 4 4 4 4 4 3 3 3 3 4 4 4 5 5 5 6 6 6 6 6 6 7 7 7 6 6 6 6 6 6 6 5
0 0 1 1 2 3 2 2 3 3 3 3 4 4 3 3 3 2 3 3 3 3 4 4 4 5 5 5 5 5 5 6 6 6 6 6 6 6 5 5 5 5 5 5
0 0 0 1 1 1 3 2 2 2 2 2 3 3 3 3 3 3 3 3 3 3 3 4 4 4 4 5 5 5 5 5 5 5 5 5 5 5 5 4 4 4 4 4
0 0 0 -0 0 1 2 2 1 1 2 1 2 2 2 2 2 2 2 3 3 3 3 3 4 4 4 4 4 4 4 4 4 4 4 4 4 4 4 4 4 3 3 3
-0 -0 -1 -1 0 1 2 1 1 2 2 1 1 1 1 1 1 1 2 2 2 3 3 3 3 3 3 3 3 3 3 3 3 3 4 3 3 3 3 3 3 3 3 3
-1 -1 -1 -1 -1 0 0 0 2 2 1 1 1 1 0 1 1 1 1 2 2 2 2 3 2 3 3 3 3 3 3 3 3 3 3 3 2 2 2 2 2 2 2 2
-1 -2 -2 -2 -1 -0 -0 -0 0 0 1 1 1 1 1 1 1 1 1 1 1 1 2 2 2 2 2 2 2 2 2 2 2 2 2 2 2 2 2 2 1 1 1 1
-2 -2 -2 -2 -1 -1 -1 -0 0 1 0 0 0 0 0 -0 -1 -0 -0 -0 0 1 1 1 1 1 1 1 1 1 1 1 1 1 1 1 1 1 1 1 1 1 0 0
-3 -2 -2 -2 -2 -2 -1 -1 -0 -0 -0 -0 -0 -0 -0 -1 -1 -1 -1 -1 -1 -0 -0 0 0 0 1 0 0 0 0 0 0 0 0 0 0 0 0 -0 -0 -0 -0 -1
-3 -3 -3 -3 -2 -2 -1 -1 -1 -1 -1 -1 -0 -1 -1 -1 -1 -1 -2 -1 -1 -1 -1 -1 -1 -0 -0 -0 -0 -0 -0 -0 -1 -0 -1 -1 -1 -1 -1 -1 -1 -1 -1 -1
-4 -4 -3 -3 -2 -2 -2 -1 -1 -1 -1 -1 -1 -1 -1 -1 -2 -2 -2 -2 -2 -2 -2 -2 -1 -1 -1 -1 -1 -1 -1 -1 -1 -1 -1 -1 -1 -1 -1 -1 -1 -2 -2 -2
Wind_Speed
3 5 9 12 10 6 5 5 5 5 4 5 9 11 9 5 5 7 7 7 7 8 5 4 5 5 5 5 6 7 7 6 6 5 5 4 4 3 2 2 4 6 7 7
3 9 9 7 6 5 6 6 5 3 2 5 6 11 9 8 8 8 9 10 9 7 4 4 5 5 6 7 7 7 7 7 7 6 5 4 4 3 2 2 3 5 6 6
8 4 6 6 7 7 7 8 7 5 2 1 2 7 7 6 6 6 7 8 8 9 9 7 6 6 6 7 8 8 8 7 7 6 5 4 3 3 2 2 2 2 5 6
5 4 6 7 8 8 8 7 6 5 2 3 3 5 7 5 6 7 8 7 8 8 7 7 7 7 7 7 6 6 7 7 7 7 7 7 5 4 4 3 3 2 3 4
5 4 7 9 8 8 5 4 5 4 4 3 3 4 8 3 6 8 9 8 8 7 8 8 8 8 6 6 6 5 6 6 6 6 8 7 5 4 3 2 3 2 2 3
4 3 4 6 5 6 4 4 2 1 2 5 7 7 7 6 9 7 7 7 8 7 6 6 5 5 4 4 4 5 6 5 5 6 6 7 7 6 5 4 4 3 2 2
2 2 2 3 5 5 5 5 3 3 4 7 6 6 9 7 7 8 8 7 6 6 6 5 5 5 4 4 5 5 6 5 5 6 6 6 7 7 7 6 6 4 3 2
2 4 4 3 5 6 7 8 7 6 6 3 4 8 8 5 4 4 4 4 4 5 5 6 6 6 5 5 5 5 5 5 5 5 5 5 5 5 4 5 5 5 4 4
2 4 2 3 3 7 7 6 4 4 1 2 5 6 8 2 2 2 1 1 3 4 5 5 4 4 5 5 5 6 6 5 4 5 5 4 4 4 4 4 3 3 3 3
2 2 3 1 2 1 5 6 4 5 4 4 4 4 4 4 3 3 2 2 3 2 2 2 3 3 3 3 3 3 4 5 4 4 4 4 3 4 4 4 4 3 3 3
0 1 2 1 4 5 4 4 4 4 4 4 3 5 3 4 4 4 3 2 2 1 2 2 2 1 2 3 3 4 3 4 3 3 3 4 3 3 3 3 4 4 3 3
0 1 1 2 2 2 3 5 5 5 4 3 3 4 4 3 2 1 1 2 1 2 2 2 2 3 3 3 3 3 3 3 3 3 3 3 3 3 3 3 3 3 3 3
0 1 1 2 2 2 1 2 3 3 3 4 4 4 4 4 4 4 2 2 2 3 4 4 4 4 3 3 3 3 3 3 2 3 4 3 3 3 3 3 3 3 3 3
1 1 2 4 2 1 1 1 1 4 3 4 5 5 6 5 4 4 3 3 3 3 4 4 4 4 3 3 3 3 3 2 3 3 3 3 2 2 2 2 3 3 3 4
2 1 1 3 2 1 1 3 3 5 5 6 5 5 7 4 2 1 2 3 4 4 4 4 3 3 3 3 3 3 3 2 3 3 3 2 2 2 2 2 3 3 3 3
1 1 1 3 2 0 2 4 5 6 5 6 5 7 5 2 2 2 2 3 3 3 3 3 3 3 3 2 2 2 2 2 3 3 2 2 2 2 3 3 3 3 3 3
0 0 0 3 3 2 4 4 4 3 2 3 6 5 1 1 1 1 1 2 2 2 2 2 2 2 1 2 2 2 1 2 3 3 2 2 2 2 2 3 3 3 3 3
2 1 1 1 2 3 4 2 2 2 1 2 1 2 1 1 1 2 2 2 1 1 2 2 2 2 2 2 2 2 3 3 3 3 2 2 2 2 2 3 2 2 2 2
3 2 1 1 2 4 4 3 2 2 2 3 3 3 2 2 3 4 4 2 1 1 1 1 2 2 2 2 2 3 3 3 3 2 2 1 2 2 2 2 2 1 2 1
1 1 2 1 2 3 3 5 4 1 3 4 3 2 2 2 1 2 2 3 3 3 3 3 3 3 3 2 2 3 3 3 2 1 1 1 1 2 2 2 1 1 1 1
1 1 1 2 3 4 5 6 2 2 4 5 2 1 0 1 2 1 2 3 3 4 4 4 3 3 2 2 2 3 2 1 1 1 1 2 1 1 1 1 1 1 1 1
2 2 2 2 3 5 4 2 1 3 3 2 2 1 1 1 2 2 3 3 4 4 4 4 4 3 3 2 3 3 2 1 1 2 2 2 1 1 1 1 1 1 2 1
2 3 3 4 4 2 1 1 2 1 1 2 2 2 2 2 2 3 3 3 3 3 3 3 3 3 3 3 2 2 1 2 2 2 2 1 1 1 1 1 1 1 1 1
3 1 1 2 3 4 3 4 4 3 2 2 2 2 2 2 2 2 3 3 3 3 3 3 3 3 3 3 3 1 1 2 2 2 1 1 1 1 1 1 0 1 1 1
3 1 1 3 4 4 4 3 3 3 3 3 3 3 2 2 1 2 2 2 2 3 3 3 2 2 2 3 3 2 1 2 2 1 1 1 1 1 1 1 0 1 2 3
2 3 3 5 4 3 4 3 3 2 3 3 3 3 3 2 1 2 2 2 2 2 3 3 3 3 3 3 3 3 2 1 1 1 1 0 1 1 1 1 2 3 2 3
Wind_Direction
174 176 204 201 199 198 179 185 219 227 208 191 227 247 254 248 226 224 221 217 215 221 225 199 186 170 161 161 162 168 166 169 162 162 163 163 175 178 173 164 157 157 156 156
166 219 219 194 187 185 190 209 234 269 223 207 239 254 254 239 226 220 217 218 217 215 209 200 187 176 175 177 175 175 177 177 177 174 171 169 164 161 167 155 144 160 160 160
197 203 184 186 190 197 208 203 214 227 306 285 262 272 251 250 232 232 226 219 212 207 207 203 195 194 186 186 185 184 182 180 175 164 145 130 109 97 130 160 179 175 163 163
222 226 185 187 197 192 222 208 202 206 202 254 200 258 262 240 245 236 233 225 220 216 210 205 198 195 195 196 188 179 177 174 170 164 162 160 165 177 190 184 183 169 151 156
227 193 179 197 204 183 202 182 185 197 204 258 215 227 275 240 239 239 230 224 223 216 205 202 200 198 194 182 175 172 167 168 168 167 168 167 166 173 165 147 147 155 159 151
252 238 196 196 186 177 154 105 92 111 160 242 212 199 263 226 218 229 226 222 220 211 203 199 189 175 172 162 159 159 161 169 169 167 169 170 168 164 156 164 171 175 176 178
295 265 232 160 146 161 156 142 160 191 209 239 192 200 244 237 224 223 227 227 218 202 192 184 173 170 170 166 166 163 164 171 173 170 173 176 177 175 176 179 181 179 182 194
196 250 219 192 176 173 185 175 179 188 204 237 184 220 249 251 257 245 230 221 204 193 191 188 185 178 175 174 168 164 170 177 175 174 177 177 177 178 181 181 180 184 191 196
198 256 277 214 186 153 166 195 169 132 134 203 234 273 297 265 312 312 291 217 209 209 199 192 185 178 174 173 175 173 170 174 174 172 167 166 170 171 171 172 173 175 180 173
169 257 279 248 116 139 164 149 135 159 178 219 250 254 257 280 287 294 272 249 240 218 188 170 168 172 168 166 158 145 154 161 160 161 166 164 166 168 169 165 168 172 171 153
54 170 307 149 182 179 139 156 157 162 181 178 214 259 247 250 263 259 261 262 232 195 170 152 134 127 119 116 121 122 124 126 131 143 145 147 155 160 160 164 173 173 161 154
338 132 247 259 291 207 181 178 161 175 204 186 182 265 318 296 298 316 319 344 30 105 94 95 99 91 88 96 103 113 118 122 133 136 133 141 143 142 148 159 169 161 158 154
59 102 50 360 2 26 175 193 177 142 139 171 180 261 343 17 26 27 28 22 44 68 71 73 78 81 86 87 90 96 106 116 118 123 127 128 130 136 147 154 150 148 147 144
39 116 177 201 226 200 252 268 172 149 187 206 216 251 309 348 1 5 17 34 48 64 75 78 74 70 75 83 88 89 83 94 111 120 126 128 136 143 149 146 138 142 145 145
51 196 236 259 258 195 262 265 229 217 211 207 225 233 275 294 301 360 35 58 62 57 58 68 74 68 68 68 64 73 73 70 96 115 120 130 127 118 117 121 123 125 130 137
43 242 288 298 313 260 326 299 256 242 240 237 244 263 295 345 50 61 64 75 72 61 57 55 60 66 63 63 58 60 61 56 85 107 113 111 113 114 116 121 122 122 122 124
284 173 229 279 317 11 300 281 252 237 238 208 237 251 288 26 68 150 139 110 101 75 65 64 58 64 57 55 69 74 61 63 78 93 100 103 111 115 117 116 116 122 131 130
217 220 208 276 41 227 256 313 278 241 291 353 332 327 279 276 61 72 80 91 66 72 73 64 59 55 44 45 55 62 63 67 77 82 82 91 109 112 109 112 121 128 130 142
210 195 179 152 216 272 297 328 327 238 280 348 321 320 348 36 52 28 19 24 48 88 90 79 65 60 58 50 58 74 65 65 71 73 70 78 116 122 122 128 139 128 134 132
61 129 150 158 193 243 288 310 306 169 284 334 339 325 348 51 140 288 353 35 38 48 57 56 47 56 59 39 64 85 77 71 67 64 105 105 117 130 151 160 153 129 140 160
38 38 184 207 232 268 304 312 339 141 273 314 309 289 207 207 226 202 66 49 43 47 51 58 62 59 47 47 81 95 84 59 351 18 72 77 90 125 156 146 145 140 131 119
187 180 207 189 220 263 325 32 125 249 295 329 332 340 49 60 67 63 59 51 47 47 45 54 64 52 35 47 82 84 64 15 44 70 78 75 69 78 94 117 114 128 139 135
212 210 201 198 219 278 308 286 309 328 322 335 350 4 64 64 51 47 46 41 38 45 42 47 65 58 35 33 71 86 24 26 53 71 72 70 64 61 94 128 132 122 145 165
296 302 191 243 271 289 312 330 343 353 345 350 17 26 56 67 49 43 46 44 36 31 31 39 55 54 27 20 41 66 42 45 67 74 67 70 75 46 42 53 118 171 204 211
267 277 235 259 279 301 312 324 325 341 6 17 22 28 45 82 53 52 41 36 35 30 26 36 45 40 14 14 20 27 45 72 67 58 77 76 63 75 40 19 304 270 239 225
245 214 217 243 253 246 278 326 353 6 5 10 24 20 25 60 69 49 40 30 38 36 39 43 37 33 13 11 6 4 20 67 100 85 62 79 74 52 41 18 358 347 327 313
Height
1451 1455 1454 1454 1456 1459 1462 1466 1467 1466 1463 1466 1466 1464 1462 1461 1461 1461 1462 1463 1465 1468 1471 1475 1478 1480 1483 1486 1489 1491 1494 1496 1499 1501 1503 1506 1508 1510 1512 1514 1516 1518 1519 1520
1453 1452 1450 1452 1455 1458 1461 1465 1467 1465 1463 1464 1465 1463 1459 1458 1457 1457 1458 1460 1462 1465 1468 1471 1474 1477 1480 1482 1485 1488 1490 1493 1496 1498 1500 1503 1505 1507 1509 1511 1513 1515 1516 1518
1449 1447 1448 1451 1454 1457 1459 1463 1464 1466 1464 1463 1464 1462 1457 1454 1453 1453 1454 1456 1458 1461 1463 1467 1470 1473 1476 1478 1481 1484 1487 1490 1492 1495 1497 1500 1502 1504 1506 1508 1510 1511 1513 1514
1447 1446 1447 1449 1452 1454 1458 1458 1460 1463 1468 1470 1467 1469 1457 1452 1451 1450 1450 1452 1453 1456 1459 1462 1465 1468 1471 1474 1478 1481 1483 1486 1489 1491 1494 1496 1498 1500 1502 1504 1506 1508 1510 1511
1445 1444 1445 1447 1448 1451 1455 1456 1459 1462 1467 1470 1468 1470 1458 1451 1450 1447 1446 1447 1449 1452 1455 1458 1461 1464 1467 1471 1474 1477 1480 1483 1485 1488 1490 1493 1495 1497 1500 1501 1503 1505 1506 1508
1444 1443 1443 1443 1446 1449 1453 1457 1461 1464 1468 1469 1465 1468 1458 1451 1444 1442 1442 1443 1445 1448 1451 1454 1457 1460 1464 1467 1470 1473 1476 1479 1482 1484 1487 1489 1492 1494 1496 1498 1500 1501 1503 1504
1445 1442 1441 1442 1446 1450 1452 1459 1466 1466 1468 1464 1460 1461 1451 1441 1438 1438 1438 1439 1442 1444 1447 1450 1453 1456 1459 1463 1466 1469 1472 1475 1478 1481 1483 1486 1488 1491 1492 1494 1496 1498 1499 1501
1447 1445 1442 1441 1443 1446 1450 1453 1460 1463 1463 1463 1460 1458 1445 1437 1435 1434 1435 1437 1439 1441 1444 1446 1449 1452 1456 1459 1462 1465 1469 1472 1475 1477 1480 1482 1485 1487 1489 1491 1493 1494 1496 1497
1449 1445 1440 1439 1439 1443 1448 1451 1452 1460 1463 1464 1459 1453 1443 1434 1434 1434 1434 1435 1436 1438 1441 1443 1446 1449 1452 1456 1459 1462 1465 1468 1471 1474 1476 1479 1481 1483 1485 1487 1489 1491 1492 1494
1447 1448 1441 1439 1439 1441 1443 1446 1453 1458 1460 1457 1454 1452 1445 1436 1435 1434 1434 1434 1434 1436 1438 1441 1444 1447 1450 1453 1456 1459 1462 1465 1468 1470 1473 1475 1478 1480 1482 1484 1485 1487 1488 1490
1447 1449 1445 1441 1441 1442 1445 1447 1448 1452 1455 1456 1454 1449 1438 1436 1435 1435 1434 1434 1434 1435 1437 1439 1442 1445 1448 1451 1453 1456 1459 1462 1465 1467 1470 1472 1474 1477 1478 1480 1481 1483 1485 1486
1447 1449 1448 1445 1442 1440 1441 1443 1447 1450 1454 1456 1455 1450 1436 1436 1435 1434 1434 1434 1434 1435 1437 1439 1441 1443 1446 1448 1451 1454 1457 1459 1462 1465 1467 1469 1471 1473 1475 1476 1478 1479 1481 1482
1448 1450 1450 1447 1447 1445 1444 1444 1444 1447 1452 1456 1453 1447 1437 1436 1435 1435 1435 1435 1435 1436 1437 1439 1441 1442 1444 1447 1449 1452 1455 1457 1460 1462 1464 1466 1468 1470 1471 1473 1475 1476 1477 1478
1447 1451 1451 1450 1447 1449 1448 1447 1446 1447 1450 1453 1450 1444 1438 1438 1437 1437 1436 1436 1436 1437 1438 1439 1440 1442 1444 1447 1449 1451 1453 1456 1458 1460 1462 1464 1465 1467 1468 1470 1471 1472 1474 1475
1449 1452 1451 1448 1446 1446 1446 1445 1445 1445 1445 1447 1444 1443 1438 1439 1439 1439 1438 1438 1438 1438 1439 1440 1441 1443 1445 1447 1448 1450 1453 1455 1456 1458 1459 1461 1463 1464 1465 1467 1468 1469 1470 1471
1451 1453 1452 1449 1446 1445 1445 1445 1444 1443 1443 1443 1441 1441 1439 1439 1439 1439 1439 1439 1439 1440 1441 1442 1442 1444 1445 1446 1448 1450 1452 1453 1455 1456 1457 1459 1460 1461 1462 1464 1465 1466 1467 1468
1453 1454 1454 1452 1449 1445 1448 1445 1444 1443 1442 1441 1440 1440 1440 1440 1440 1439 1440 1440 1441 1441 1442 1443 1444 1445 1446 1447 1448 1449 1450 1452 1453 1454 1455 1456 1457 1458 1460 1461 1462 1463 1464 1465
1453 1454 1455 1454 1453 1456 1447 1444 1443 1442 1441 1440 1439 1438 1438 1438 1439 1439 1440 1440 1441 1441 1442 1443 1444 1445 1446 1447 1447 1449 1450 1451 1452 1453 1453 1454 1455 1456 1457 1458 1459 1460 1461 1461
1451 1452 1455 1457 1457 1451 1445 1444 1444 1444 1442 1441 1440 1439 1438 1438 1438 1440 1440 1441 1441 1442 1442 1443 1444 1445 1445 1446 1447 1447 1448 1449 1450 1451 1452 1453 1453 1454 1455 1456 1456 1457 1458 1458
1450 1452 1456 1458 1456 1453 1447 1444 1441 1443 1442 1441 1440 1439 1439 1438 1441 1441 1441 1441 1441 1442 1442 1443 1443 1444 1445 1445 1446 1446 1447 1448 1449 1449 1450 1451 1452 1452 1453 1453 1454 1454 1455 1455
1455 1456 1459 1459 1458 1452 1448 1444 1441 1447 1446 1441 1439 1439 1438 1439 1439 1440 1440 1440 1441 1441 1442 1442 1443 1443 1444 1445 1445 1445 1446 1446 1447 1448 1448 1449 1450 1450 1451 1451 1451 1452 1452 1452
1456 1458 1459 1459 1459 1456 1447 1445 1446 1445 1442 1441 1439 1439 1438 1438 1438 1439 1439 1440 1440 1440 1441 1441 1442 1443 1443 1444 1444 1444 1444 1445 1446 1446 1446 1447 1447 1448 1448 1448 1449 1449 1449 1449
1455 1455 1454 1455 1454 1450 1447 1446 1444 1443 1442 1441 1440 1439 1439 1438 1438 1439 1439 1439 1440 1440 1440 1441 1441 1442 1442 1443 1443 1443 1444 1444 1444 1444 1444 1445 1445 1445 1446 1446 1446 1446 1446 1446
1453 1451 1452 1451 1449 1448 1446 1445 1444 1443 1441 1440 1440 1439 1439 1438 1438 1438 1438 1439 1439 1439 1440 1440 1440 1441 1441 1441 1442 1442 1442 1442 1442 1442 1443 1443 1443 1443 1443 1443 1443 1443 1442 1442
1453 1452 1451 1450 1448 1446 1444 1444 1443 1442 1441 1440 1439 1439 1438 1438 1438 1438 1438 1438 1438 1438 1439 1439 1439 1439 1439 1440 1440 1440 1440 1440 1441 1441 1441 1441 1441 1441 1441 1441 1441 1440 1440 1440
1451 1451 1451 1448 1446 1446 1444 1443 1443 1441 1440 1439 1438 1438 1438 1438 1437 1437 1437 1438 1438 1438 1438 1438 1438 1438 1438 1438 1438 1439 1439 1439 1439 1439 1439 1439 1439 1438 1438 1438 1438 1438 1438 1437